Flag for Russia Weather past 2 weeks in Samara, Russia

Now
54 °F

Cloudy.


Feels Like: 50 °F
Forecast: 39 / 52 °F
Wind: 10 mph from Northwest

Location: Samara

Current Time: Sep 16, 2014 at 11:44:49 AM

Latest Report: Sep 16, 2014 at 11:00 AM


Visibility: N/A

Pressure: 29.95 "Hg

Humidity: 54%

Dew point: 37 °F

Location of SamaraLocation

Historic Weather in Samara — Graph

°F

Samara temperature yesterday

Maximum temperature yesterday: 64 °F (at 4:00 PM)
Minimum temperature yesterday: 48 °F (at 6:00 AM)
Average temperature yesterday: 56 °F

Past Weeks' High & Low Weather Summary

 TemperatureHumidityPressure
High75 °F (Sep 12, 4:00 PM)94% (Sep 15, 7:30 AM)30.39 "Hg (Sep 15, 7:30 AM)
Low41 °F (Sep 10, 6:00 AM)18% (Sep 12, 5:00 PM)29.95 "Hg (Sep 6, 5:30 PM)
Average59 °F56%30.16 "Hg
* Reported Sep 1 11:00 AM — Sep 16 11:00 AM, Samara, Weather by CustomWeather, © 2014

Note: Actual official high and low records may vary slightly from our data, if they occured in-between our weather recording intervals... More about our weather records

Advertising

Samara weather history for previous 24 hours

 ConditionsComfort  
Time TempWeatherWind HumidityBarometerVisibility
11:00 AM
Sep 16
54 °FCloudy.10 mph54%29.95 "HgN/A
10:30 AM54 °FCloudy.15 mph58%29.95 "HgN/A
10:00 AM54 °FCloudy.13 mph63%29.95 "HgN/A
9:30 AM54 °FCloudy.15 mph63%29.98 "HgN/A
9:00 AM52 °FCloudy.10 mph72%29.95 "HgN/A
8:30 AM52 °FMore clouds than sun.10 mph72%29.95 "HgN/A
8:00 AM52 °FFog.8 mph77%29.95 "Hg2 mi
7:30 AM52 °FFog.8 mph77%29.95 "Hg2 mi
7:00 AM52 °FFog.8 mph82%29.95 "Hg2 mi
6:30 AM54 °FFog.6 mph77%29.95 "Hg2 mi
6:00 AM54 °FFog.6 mph77%29.95 "Hg2 mi
5:00 AM54 °FFog.6 mph82%29.98 "Hg2 mi
4:30 AM54 °FFog.3 mph82%29.98 "Hg2 mi
4:00 AM54 °FFog.6 mph82%29.98 "Hg2 mi
3:30 AM54 °FFog.6 mph82%29.98 "Hg2 mi
3:00 AM54 °FFog.6 mph82%29.98 "Hg2 mi
2:30 AM52 °FFog.6 mph88%30.01 "Hg2 mi
2:00 AM54 °FFog.6 mph82%30.01 "Hg2 mi
1:30 AM54 °FFog.3 mph88%30.01 "Hg2 mi
1:00 AM54 °FFog.6 mph88%30.01 "Hg2 mi
12:30 AM54 °FFog.3 mph88%30.01 "Hg2 mi
12:00 AM54 °FFog.3 mph88%30.01 "Hg2 mi
11:30 PM
Sep 15
55 °FFog.3 mph82%30.04 "Hg2 mi
11:00 PM55 °FFog.3 mph82%30.04 "Hg2 mi
10:30 PM55 °FFog.6 mph82%30.04 "Hg2 mi
10:00 PM55 °FClear.3 mph82%30.04 "Hg10 mi
9:30 PM55 °FClear.3 mph77%30.04 "Hg10 mi
9:00 PM57 °FClear.1 mph72%30.04 "Hg10 mi
8:30 PM57 °FClear.6 mph72%30.04 "Hg10 mi
8:00 PM59 °FClear.6 mph72%30.04 "Hg10 mi
7:30 PM59 °FSunny.3 mph72%30.04 "Hg10 mi
7:00 PM61 °FSunny.3 mph68%30.04 "Hg10 mi
6:30 PM61 °FSunny.3 mph68%30.04 "Hg10 mi
6:00 PM63 °FSunny.6 mph59%30.04 "Hg10 mi
5:30 PM63 °FSunny.6 mph59%30.04 "Hg10 mi
5:00 PM64 °FPartly sunny.6 mph56%30.07 "HgN/A
4:30 PM64 °FMore clouds than sun.3 mph52%30.07 "HgN/A
4:00 PM64 °FMore clouds than sun.6 mph52%30.07 "HgN/A
3:30 PM63 °FMore clouds than sun.3 mph59%30.09 "HgN/A
3:00 PM61 °FMore clouds than sun.6 mph68%30.09 "HgN/A
2:30 PM61 °FMore clouds than sun.3 mph68%30.09 "HgN/A
2:00 PM61 °FSprinkles. More clouds than sun.6 mph72%30.09 "Hg2 mi
1:30 PM61 °FMore clouds than sun.6 mph68%30.09 "HgN/A
1:00 PM61 °FMore clouds than sun.8 mph68%30.12 "HgN/A
12:30 PM59 °FMore clouds than sun.6 mph72%30.12 "HgN/A
12:00 PM61 °FMore clouds than sun.3 mph68%30.12 "HgN/A
11:30 AM59 °FMore clouds than sun.3 mph72%30.12 "HgN/A
11:00 AM59 °FMore clouds than sun.1 mph72%30.12 "HgN/A
Weather by CustomWeather, © 2014

See weather overviewHow to use our weather pages